Location: Central Coast
(33.3208°S, 151.2336°E)
Time: 13:55:11
(UTC+11:00)

ISS - Visible Passes

Search period start: 21 October 2017 00:00
Search period end: 31 October 2017 00:00
Orbit: 401 x 408 km, 51.6° (Epoch: 21 October)

Date Brightness Start Highest point End Pass type
(mag) Time Alt. Az. Time Alt. Az. Time Alt. Az.
21 Oct -1.1 04:35:51 10° SSW 04:38:24 20° SE 04:40:57 10° E visible
22 Oct -0.5 03:44:24 10° S 03:45:51 12° SSE 03:47:18 10° SE visible
22 Oct -3.9 05:19:22 10° SW 05:22:42 80° NW 05:25:59 10° NE visible
22 Oct -2.0 20:20:22 10° N 20:21:41 18° NNE 20:21:41 18° NNE visible
23 Oct -2.7 04:27:37 13° SSW 04:30:22 45° SE 04:33:34 10° ENE visible
23 Oct -3.1 21:03:43 10° WNW 21:06:59 53° SW 21:07:01 53° SW visible
24 Oct -1.0 03:39:12 19° ESE 03:39:12 19° ESE 03:40:40 10° E visible
24 Oct -2.8 05:12:00 13° WSW 05:14:20 26° NW 05:17:08 10° N visible
24 Oct -3.9 20:11:20 10° NW 20:14:38 67° NE 20:17:58 10° SE visible
24 Oct -0.6 21:49:40 10° WSW 21:51:25 13° SSW 21:51:49 13° SSW visible
25 Oct -1.8 04:24:12 20° NNE 04:24:12 20° NNE 04:25:20 10° NNE visible
25 Oct -1.2 20:56:09 10° W 20:58:49 22° SW 21:01:33 10° SSE visible
26 Oct -2.4 20:03:09 10° WNW 20:06:20 41° SW 20:09:32 10° SSE visible
27 Oct -0.5 20:49:35 10° SW 20:50:49 12° SSW 20:52:02 10° S visible
28 Oct -0.8 19:55:42 10° W 19:58:09 19° SSW 20:00:37 10° SSE visible
